Simultaneous Nadir Overpasses (SNOs) Predictions

Prediction of SNOs between GOES-16 and LANDSAT-8 Satellite Orbit:

Table of predicted SNOs for the next 14.0 days since TLE Epoch: 9/11/2021
Index Date Time (GOES-16) GOES-16 Lat,Lon LANDSAT-8 Lat,Lon Distance(km) Time Diff (sec)
1 09/11/2021 03:31:04 -0.09, -75.19 0.00, -79.28 454.54 80
2 09/12/2021 14:54:34 0.08, -75.19 -0.84, -70.94 483.10 80
3 09/13/2021 03:18:38 -0.10, -75.17 -0.28, -76.13 108.51 80
4 09/15/2021 03:03:47 -0.10, -75.15 0.34, -73.17 225.61 80
5 09/15/2021 15:27:42 0.11, -75.15 0.79, -78.32 360.10 80
6 09/17/2021 15:15:31 0.11, -75.14 0.16, -75.36 25.17 80
7 09/19/2021 15:00:40 0.11, -75.14 -0.47, -72.41 310.69 80
8 09/20/2021 03:24:44 -0.12, -75.13 -0.64, -77.59 280.01 80
9 09/22/2021 03:09:53 -0.12, -75.14 -0.00, -74.64 56.96 80
10 09/24/2021 02:57:42 -0.11, -75.15 0.64, -71.68 394.62 80
11 09/24/2021 15:21:36 0.13, -75.16 0.50, -76.83 190.41 80
